Previsão horária em Abejorral

Hoje, 24 Janeiro, Domingo

Tempo Temperatura Precipitação Vento Pressão Humidade
00:00 +11°C° 0.1 mm 0 m/s 583 mmHg 96%
01:00 +11°C° 0.1 mm 0 m/s 583 mmHg 96%
02:00 +11°C° 0 mm 0 m/s 583 mmHg 96%
03:00 +11°C° 0 mm 0 m/s 583 mmHg 96%
04:00 +11°C° 0 mm 0 m/s 582 mmHg 96%
05:00 +11°C° 0 mm 0 m/s 583 mmHg 95%
06:00 +11°C° 0 mm 0 m/s 583 mmHg 95%
07:00 +11°C° 0 mm 0 m/s 584 mmHg 95%
08:00 +13°C° 0 mm 0 m/s 585 mmHg 86%
09:00 +18°C° 0 mm 1 m/s 586 mmHg 77%
10:00 +20°C° 0 mm 1 m/s 587 mmHg 68%
11:00 +21°C° 0.2 mm 1 m/s 587 mmHg 66%
12:00 +22°C° 0.2 mm 1 m/s 586 mmHg 64%
13:00 +22°C° 0.2 mm 1 m/s 586 mmHg 62%
14:00 +22°C° 0.6 mm 1 m/s 585 mmHg 66%
15:00 +22°C° 0.6 mm 1 m/s 585 mmHg 70%
16:00 +21°C° 0.6 mm 1 m/s 584 mmHg 73%
17:00 +19°C° 0.8 mm 1 m/s 584 mmHg 81%
18:00 +16°C° 0.8 mm 1 m/s 583 mmHg 89%
19:00 +15°C° 0.8 mm 1 m/s 583 mmHg 96%
20:00 +14°C° 0.7 mm 1 m/s 583 mmHg 97%
21:00 +14°C° 0.7 mm 1 m/s 583 mmHg 97%
22:00 +14°C° 0.7 mm 1 m/s 584 mmHg 97%
23:00 +13°C° 1.4 mm 0 m/s 583 mmHg 97%

Amanhã, 25 Janeiro, Segunda-feira

Tempo Temperatura Precipitação Vento Pressão Humidade
00:00 +13°C° 1.4 mm 0 m/s 583 mmHg 98%
01:00 +12°C° 1.4 mm 0 m/s 583 mmHg 98%
02:00 +12°C° 0.1 mm 0 m/s 583 mmHg 98%
03:00 +12°C° 0.1 mm 0 m/s 582 mmHg 97%
04:00 +12°C° 0.1 mm 0 m/s 582 mmHg 97%
05:00 +11°C° 0 mm 0 m/s 582 mmHg 97%
06:00 +11°C° 0 mm 0 m/s 583 mmHg 96%
07:00 +11°C° 0 mm 0 m/s 583 mmHg 96%
08:00 +13°C° 0.1 mm 0 m/s 584 mmHg 89%
09:00 +16°C° 0.1 mm 1 m/s 585 mmHg 82%
10:00 +19°C° 0.1 mm 1 m/s 586 mmHg 75%
11:00 +20°C° 0.3 mm 1 m/s 586 mmHg 71%
12:00 +21°C° 0.3 mm 1 m/s 586 mmHg 68%
13:00 +22°C° 0.3 mm 1 m/s 586 mmHg 65%
14:00 +22°C° 0.8 mm 1 m/s 585 mmHg 70%
15:00 +21°C° 0.8 mm 1 m/s 584 mmHg 74%
16:00 +20°C° 0.8 mm 1 m/s 583 mmHg 79%
17:00 +19°C° 0.6 mm 1 m/s 583 mmHg 85%
18:00 +16°C° 0.6 mm 1 m/s 583 mmHg 90%
19:00 +15°C° 0.6 mm 1 m/s 583 mmHg 95%
20:00 +14°C° 0.5 mm 1 m/s 583 mmHg 96%
21:00 +14°C° 0.5 mm 1 m/s 583 mmHg 97%
22:00 +13°C° 0.5 mm 0 m/s 583 mmHg 97%
23:00 +13°C° 0.3 mm 0 m/s 583 mmHg 97%

Depois de amanhã, 26 Janeiro, Terça-feira

Tempo Temperatura Precipitação Vento Pressão Humidade
00:00 +12°C° 0.3 mm 0 m/s 583 mmHg 96%
01:00 +12°C° 0.3 mm 0 m/s 583 mmHg 96%
02:00 +12°C° 0.1 mm 0 m/s 583 mmHg 96%
03:00 +12°C° 0.1 mm 0 m/s 583 mmHg 96%
04:00 +12°C° 0.1 mm 0 m/s 583 mmHg 96%
05:00 +12°C° 0.1 mm 0 m/s 583 mmHg 96%
06:00 +12°C° 0.1 mm 0 m/s 583 mmHg 96%
07:00 +12°C° 0.1 mm 0 m/s 584 mmHg 96%
08:00 +14°C° 0.1 mm 0 m/s 585 mmHg 90%
09:00 +16°C° 0.1 mm 0 m/s 586 mmHg 84%
10:00 +19°C° 0.1 mm 1 m/s 587 mmHg 77%
11:00 +20°C° 0.4 mm 1 m/s 586 mmHg 74%
12:00 +21°C° 0.4 mm 1 m/s 586 mmHg 70%
13:00 +22°C° 0.4 mm 1 m/s 586 mmHg 67%
14:00 +22°C° 0.5 mm 1 m/s 585 mmHg 71%
15:00 +21°C° 0.5 mm 1 m/s 585 mmHg 74%
16:00 +19°C° 0.5 mm 0 m/s 584 mmHg 78%
17:00 +19°C° 0.3 mm 1 m/s 584 mmHg 84%
18:00 +16°C° 0.3 mm 1 m/s 584 mmHg 90%
19:00 +15°C° 0.3 mm 1 m/s 583 mmHg 96%
20:00 +14°C° 0.1 mm 1 m/s 584 mmHg 96%
21:00 +13°C° 0.1 mm 0 m/s 584 mmHg 96%
22:00 +13°C° 0.1 mm 0 m/s 584 mmHg 96%
23:00 +13°C° 0.1 mm 0 m/s 584 mmHg 97%

27 Janeiro, Quarta-feira

Tempo Temperatura Precipitação Vento Pressão Humidade
00:00 +12°C° 0.1 mm 0 m/s 584 mmHg 97%
01:00 +12°C° 0.1 mm 0 m/s 583 mmHg 97%
02:00 +12°C° 0.1 mm 0 m/s 583 mmHg 97%
03:00 +12°C° 0.1 mm 0 m/s 583 mmHg 97%
04:00 +11°C° 0.1 mm 0 m/s 583 mmHg 97%
05:00 +11°C° 0 mm 0 m/s 583 mmHg 96%
06:00 +12°C° 0 mm 0 m/s 584 mmHg 96%
07:00 +12°C° 0 mm 0 m/s 584 mmHg 95%
08:00 +14°C° 0.1 mm 0 m/s 585 mmHg 88%
09:00 +18°C° 0.1 mm 1 m/s 586 mmHg 80%
10:00 +20°C° 0.1 mm 1 m/s 587 mmHg 72%
11:00 +21°C° 0.3 mm 1 m/s 587 mmHg 69%
12:00 +22°C° 0.3 mm 1 m/s 587 mmHg 65%
13:00 +23°C° 0.3 mm 1 m/s 587 mmHg 61%
14:00 +23°C° 0.2 mm 1 m/s 587 mmHg 61%
15:00 +22°C° 0.2 mm 1 m/s 586 mmHg 62%
16:00 +22°C° 0.2 mm 1 m/s 586 mmHg 62%
17:00 +20°C° 0.1 mm 1 m/s 585 mmHg 73%
18:00 +18°C° 0.1 mm 1 m/s 584 mmHg 83%
19:00 +15°C° 0.1 mm 1 m/s 584 mmHg 93%
20:00 +15°C° 0.1 mm 1 m/s 584 mmHg 94%
21:00 +14°C° 0.1 mm 1 m/s 584 mmHg 94%
22:00 +14°C° 0.1 mm 1 m/s 584 mmHg 94%
23:00 +14°C° 0 mm 1 m/s 584 mmHg 94%

28 Janeiro, Quinta-feira

Tempo Temperatura Precipitação Vento Pressão Humidade
00:00 +12°C° 0 mm 0 m/s 584 mmHg 94%
01:00 +12°C° 0 mm 0 m/s 583 mmHg 95%
02:00 +11°C° 0 mm 0 m/s 583 mmHg 95%
03:00 +11°C° 0 mm 0 m/s 583 mmHg 94%
04:00 +10°C° 0 mm 0 m/s 582 mmHg 94%
05:00 +11°C° 0 mm 0 m/s 583 mmHg 94%
06:00 +11°C° 0 mm 0 m/s 583 mmHg 93%
07:00 +11°C° 0 mm 0 m/s 584 mmHg 92%
08:00 +14°C° 0 mm 0 m/s 585 mmHg 81%
09:00 +18°C° 0 mm 1 m/s 586 mmHg 71%
10:00 +21°C° 0 mm 1 m/s 588 mmHg 60%
11:00 +22°C° 0 mm 1 m/s 588 mmHg 56%
12:00 +23°C° 0 mm 1 m/s 588 mmHg 53%
13:00 +24°C° 0 mm 1 m/s 588 mmHg 49%

29 Janeiro, Sexta-feira

Tempo Temperatura Precipitação Vento Pressão Humidade
Mostrar mais